Weather History for Atlantic City, NJ

Change the Weather History Date:

Sunday, June 15, 2014

  Actual Average Record
Temperature  
Mean Temperature 68 °F 71 °F  
Max Temperature 82 °F 81 °F 97 °F (1987)
Min Temperature 54 °F 61 °F 44 °F (1978)
Degree Days  
Heating Degree Days 0 1  
Month to date heating degree days 10 22  
Since 1 June heating degree days 10 22  
Since 1 July heating degree days 5307 4900  
Cooling Degree Days 3 7  
Month to date cooling degree days 71 76  
Year to date cooling degree days 107 140  
Since 1 June cooling degree days 71 76  
Growing Degree Days 18 (Base 50)    
Moisture  
Dew Point 53 °F    
Average Humidity 62    
Maximum Humidity 89    
Minimum Humidity 34    
Precipitation  
Precipitation 0.00 in 0.10 in 1.00 in (1980)
Month to date precipitation 1.07 1.63  
Year to date precipitation 21.25 18.91  
Snow  
Snow 0.00 in 0.00 in 0.00 in (1903)
Month to date snowfall 0.0 0.0  
Since 1 June snowfall 0.0 0.0  
Since 1 July snowfall 43.8 16.5  
Snow Depth 0.00 in    
Sea Level Pressure  
Sea Level Pressure 30.09 in    
Wind  
Wind Speed 9 mph (WNW)    
Max Wind Speed 17 mph    
Max Gust Speed 24 mph    
Visibility 10 miles    
Events      
T = Trace of Precipitation, MM = Missing Value Source: NWS Daily Summary

Daily Weather History Graph

Daily Weather History Graph

Search for Another Location

Airport:

Trip Planner

Search our weather history database for the weather conditions in past years. The results will help you decide how hot, cold, wet, or windy it might be!

Date:

Astronomy

Jun. 15, 2014 Rise Set
Actual Time 5:30 AM EDT 8:27 PM EDT
Civil Twilight 4:58 AM EDT 8:59 PM EDT
Nautical Twilight 4:17 AM EDT 9:40 PM EDT
Astronomical Twilight 3:29 AM EDT 10:27 PM EDT
Moon 10:36 PM EDT (6/15) 8:20 AM EDT (6/15)
Length of Visible Light 16h 01m
Length of Day
14h 56m
Waning Gibbous, 91% of the Moon is Illuminated
Jun 15
Waning Gibbous
Jun 19
Last Quarter
Jun 27
New
Jul 5
First Quarter
Jul 12
Full

Hourly Weather History & Observations

Time (EDT) Temp. Heat Index Dew Point Humidity Pressure Visibility Wind Dir Wind Speed Gust Speed Precip Events Conditions
12:54 AM 57.0 °F - 46.9 °F 69% 30.07 in 10.0 mi WNW 6.9 mph - N/A   Clear
1:54 AM 57.9 °F - 48.9 °F 72% 30.07 in 10.0 mi WNW 8.1 mph - N/A   Clear
2:54 AM 57.0 °F - 48.9 °F 74% 30.08 in 10.0 mi WNW 9.2 mph - N/A   Clear
3:54 AM 55.0 °F - 48.9 °F 80% 30.08 in 10.0 mi WNW 8.1 mph - N/A   Clear
4:54 AM 55.0 °F - 50.0 °F 83% 30.08 in 10.0 mi NW 6.9 mph - N/A   Clear
5:54 AM 54.0 °F - 50.0 °F 86% 30.10 in 10.0 mi WNW 6.9 mph - N/A   Clear
6:54 AM 57.9 °F - 52.0 °F 81% 30.11 in 10.0 mi NW 10.4 mph - N/A   Clear
7:54 AM 63.0 °F - 53.1 °F 70% 30.13 in 10.0 mi NW 12.7 mph - N/A   Clear
8:54 AM 66.9 °F - 53.1 °F 61% 30.14 in 10.0 mi NW 11.5 mph - N/A   Clear
9:54 AM 70.0 °F - 53.1 °F 55% 30.14 in 10.0 mi NNW 15.0 mph - N/A   Clear
10:54 AM 73.0 °F - 54.0 °F 51% 30.13 in 10.0 mi NW 10.4 mph 19.6 mph N/A   Clear
11:54 AM 75.0 °F - 54.0 °F 48% 30.12 in 10.0 mi NW 15.0 mph - N/A   Clear
12:54 PM 77.0 °F - 54.0 °F 45% 30.11 in 10.0 mi NW 11.5 mph 21.9 mph N/A   Clear
1:54 PM 80.1 °F 80.1 °F 55.0 °F 42% 30.09 in 10.0 mi NW 13.8 mph - N/A   Clear
2:54 PM 80.1 °F - 52.0 °F 38% 30.07 in 10.0 mi NNW 9.2 mph 17.3 mph N/A   Clear
3:54 PM 82.0 °F - 52.0 °F 35% 30.06 in 10.0 mi NNW 15.0 mph 18.4 mph N/A   Clear
4:54 PM 81.0 °F 80.5 °F 54.0 °F 39% 30.06 in 10.0 mi WNW 8.1 mph - N/A   Clear
5:54 PM 81.0 °F 80.4 °F 53.1 °F 38% 30.06 in 10.0 mi WNW 11.5 mph - N/A   Clear
6:54 PM 80.1 °F 80.0 °F 54.0 °F 40% 30.06 in 10.0 mi WNW 8.1 mph - N/A   Clear
7:54 PM 75.9 °F - 55.9 °F 50% 30.07 in 10.0 mi West 8.1 mph - N/A   Clear
8:54 PM 73.9 °F - 57.0 °F 55% 30.07 in 10.0 mi WSW 5.8 mph - N/A   Clear
9:54 PM 71.1 °F - 57.0 °F 61% 30.08 in 10.0 mi SW 4.6 mph - N/A   Clear
10:54 PM 68.0 °F - 57.0 °F 68% 30.10 in 10.0 mi West 5.8 mph - N/A   Clear
11:54 PM 66.9 °F - 57.0 °F 70% 30.10 in 10.0 mi SW 3.5 mph - N/A   Clear